Location: Oregon Star Party
(44.2935°N, 120.1332°W)
Time: 12:11:01
(UTC-08:00)

Amateur Radio Satellites - All Passes

Search period start: 18 January 2017 11:41
Search period end: 19 January 2017 11:41
Location: Oregon Star Party, 44.2935°N, 120.1332°W

Satellite Date Start Highest point End Downlink Frequencies (MHz)
Time Altitude Azimuth
Cosmos 2491 18 Jan 11:42:08 11:48:50 23° 62° (ENE) 11:55:32 435.465 / 435.565
BUGSAT 1 18 Jan 11:49:06 11:53:10 68° 259° (WSW) 11:57:12 437.445
BY70-1 18 Jan 11:54:07 11:56:46 21° 293° (WNW) 11:59:20 436.1900
QB50P1 18 Jan 12:01:51 12:04:35 17° 268° (W) 12:07:19 145.935-145.965
POLYITAN 1 18 Jan 12:05:32 12:08:02 15° 269° (W) 12:10:32 437.675
QB50P2 18 Jan 12:06:59 12:09:15 14° 270° (W) 12:11:29 145.880/145.840
DX 1 18 Jan 12:08:19 12:12:11 31° 97° (E) 12:16:02 434.975-435.025
UKube-1 18 Jan 12:12:14 12:15:49 25° 95° (E) 12:19:23 .
AO-7 18 Jan 12:13:07 12:17:45 16° 43° (NE) 12:22:24 29.400- 29.500
SPROUT 18 Jan 12:14:16 12:18:28 57° 101° (E) 12:22:39 437.525
CUBEBUG 1 18 Jan 12:20:45 12:25:01 56° 287° (WNW) 12:29:13 437.445
Gurwin Techsat 1B 18 Jan 12:21:50 12:26:42 38° 67° (ENE) 12:31:36 435.225
Oscar 19 18 Jan 12:25:33 12:30:44 74° 73° (ENE) 12:35:57 437.125/150
AISAT 18 Jan 12:30:59 12:35:22 69° 286° (WNW) 12:39:43 437.250
50 SAT 18 Jan 12:43:55 12:47:25 54° 287° (WNW) 12:50:52 437.505
ESTCUBE 1 18 Jan 12:44:10 12:47:41 23° 295° (WNW) 12:51:12 437.505/2401.250
AIST 1 18 Jan 12:46:29 12:46:59 10° 82° (E) 12:47:29
VELOX 1 18 Jan 13:04:52 13:08:49 33° 292° (WNW) 13:12:44 145.980
ITAMSAT 1 18 Jan 13:05:08 13:08:58 21° 61° (ENE) 13:12:48 435.822/435.867
CUSAT 1 18 Jan 13:10:02 13:17:11 35° 67° (ENE) 13:24:07 437.405
BEESAT 18 Jan 13:28:26 13:29:54 11° 88° (E) 13:31:23 436.000
SWISSCUBE 18 Jan 13:29:08 13:31:24 13° 89° (E) 13:33:40 437.505
DANDE 18 Jan 13:37:36 13:43:20 23° 64° (ENE) 13:49:33 436.750
Cosmos 2491 18 Jan 13:38:00 13:46:48 83° 264° (W) 13:55:37 435.465 / 435.565
DX 1 18 Jan 13:44:39 13:48:16 26° 294° (WNW) 13:51:52 434.975-435.025
YUBILEINY 18 Jan 13:46:46 13:55:05 49° 88° (E) 14:03:26 435.215
UKube-1 18 Jan 13:48:03 13:51:52 32° 292° (WNW) 13:55:41 .
TISAT 1 18 Jan 13:50:10 13:54:21 88° 293° (WNW) 13:58:32 437.305
SPROUT 18 Jan 13:51:30 13:53:56 15° 298° (WNW) 13:56:22 437.525
AO-85 18 Jan 13:56:31 14:00:55 39° 118° (ESE) 14:05:01 145.980
AO-7 18 Jan 14:00:42 14:08:52 61° 65° (ENE) 14:17:04 29.400- 29.500
Gurwin Techsat 1B 18 Jan 14:02:06 14:06:42 30° 265° (W) 14:11:21 435.225
Oscar 19 18 Jan 14:07:45 14:10:36 15° 271° (W) 14:13:29 437.125/150
AIST 1 18 Jan 14:19:31 14:23:54 75° 279° (W) 14:28:17
ITUPSAT 1 18 Jan 14:27:28 14:32:03 43° 99° (E) 14:36:37 437.325
Cosmos 2504 18 Jan 14:28:17 14:36:31 49° 89° (E) 14:44:18 435.465 / 435.565
ITAMSAT 1 18 Jan 14:42:58 14:48:02 55° 259° (W) 14:53:08 435.822/435.867
BRITE-PL 18 Jan 14:49:38 14:53:42 21° 62° (ENE) 14:57:44 437.365/2234.400
CUSAT 1 18 Jan 14:51:42 14:59:29 59° 266° (W) 15:06:53 437.405
BEESAT 18 Jan 15:03:29 15:08:17 83° 286° (WNW) 15:13:05 436.000
SO-50 18 Jan 15:03:43 15:06:10 14° 32° (NNE) 15:08:35 436.795
SWISSCUBE 18 Jan 15:04:54 15:09:42 73° 287° (WNW) 15:14:28 437.505
GOMX 1 18 Jan 15:07:09 15:09:04 12° 58° (ENE) 15:10:58 467.674
MOZHAYETS 4 18 Jan 15:18:06 15:22:35 45° 99° (E) 15:27:02
DANDE 18 Jan 15:19:13 15:26:47 88° 261° (W) 15:35:12 436.750
Cosmos 2491 18 Jan 15:37:01 15:42:14 18° 285° (WNW) 15:47:27 435.465 / 435.565
AO-85 18 Jan 15:37:22 15:41:23 29° 314° (NW) 15:45:11 145.980
STARS 18 Jan 15:39:18 15:39:47 10° 88° (E) 15:40:15 437.465
CUTE-I 18 Jan 15:41:41 15:43:31 12° 55° (NE) 15:45:22 437.470
YUBILEINY 18 Jan 15:43:51 15:52:01 41° 289° (WNW) 16:00:16 435.215
AO-7 18 Jan 15:54:43 16:02:02 33° 264° (W) 16:09:25 29.400- 29.500
DOVE 4 18 Jan 15:56:41 15:58:52 13° 61° (ENE) 16:01:01 437.250
O/OREOS (USA 219) 18 Jan 15:58:35 16:02:58 51° 62° (ENE) 16:07:22 437.305
CUBESAT XI-V 18 Jan 15:58:48 16:02:15 20° 92° (E) 16:05:39 437.345
ITUPSAT 1 18 Jan 16:05:50 16:09:38 24° 296° (WNW) 16:13:25 437.325
NOAA 18 18 Jan 16:10:44 16:13:15 13° 55° (NE) 16:15:46 137.9125
KKS-1 18 Jan 16:13:17 16:17:38 53° 100° (E) 16:21:57 437.445
M-CUBED/EXP-1 PRIME 18 Jan 16:13:48 16:17:11 57° 106° (ESE) 16:20:25 437.505
Cubesat XI-IV 18 Jan 16:21:16 16:25:31 25° 63° (ENE) 16:29:47 437.490
Cosmos 2504 18 Jan 16:22:00 16:30:01 40° 288° (WNW) 16:37:38 435.465 / 435.565
HORYU 2 18 Jan 16:22:35 16:26:55 60° 73° (ENE) 16:31:16 437.375
BRITE-PL 18 Jan 16:25:57 16:31:36 69° 259° (W) 16:37:16 437.365/2234.400
BEESAT 3 18 Jan 16:27:44 16:31:23 39° 118° (ESE) 16:35:05 437.485
NOAA 15 18 Jan 16:37:06 16:41:53 36° 66° (ENE) 16:46:41 137.62
CUSAT 1 18 Jan 16:37:21 16:39:46 12° 285° (WNW) 16:42:12 437.405
LilacSat-2 18 Jan 16:38:53 16:42:06 27° 69° (ENE) 16:45:20 437.200
GOMX 1 18 Jan 16:40:55 16:46:21 76° 75° (ENE) 16:51:33 467.674
SO-50 18 Jan 16:42:58 16:47:30 69° 53° (NE) 16:51:55 436.795
BEESAT 18 Jan 16:43:47 16:45:17 11° 303° (WNW) 16:46:48 436.000
AUBIESAT-1 18 Jan 16:52:20 16:55:41 54° 292° (WNW) 16:58:54 437.475
MOZHAYETS 4 18 Jan 16:55:58 16:59:26 21° 296° (WNW) 17:02:54
DANDE 18 Jan 17:03:31 17:08:45 20° 277° (W) 17:14:20 436.750
BEESAT 2 18 Jan 17:07:49 17:11:35 46° 119° (ESE) 17:15:26 435.950
STARS 18 Jan 17:12:18 17:16:41 79° 285° (WNW) 17:21:02 437.465
CUTE-I 18 Jan 17:17:22 17:22:40 75° 73° (ENE) 17:27:59 437.470
DOVE 4 18 Jan 17:30:53 17:35:57 87° 255° (WSW) 17:40:46 437.250
CUBESAT XI-V 18 Jan 17:35:21 17:39:51 46° 289° (WNW) 17:44:19 437.345
CINEMA 3 18 Jan 17:38:31 17:42:14 27° 68° (ENE) 17:45:52 145.822/145.860
O/OREOS (USA 219) 18 Jan 17:39:02 17:41:58 17° 260° (W) 17:44:54 437.305
HO-68 18 Jan 17:43:13 17:49:39 37° 61° (ENE) 17:56:07 435.675
NOAA 18 18 Jan 17:47:32 17:53:03 80° 74° (ENE) 17:58:33 137.9125
M-CUBED/EXP-1 PRIME 18 Jan 17:50:34 17:51:11 10° 305° (NW) 17:51:46 437.505
KKS-1 18 Jan 17:50:54 17:53:47 17° 298° (WNW) 17:56:39 437.445
CUTE 1.7 + AOD 2 18 Jan 17:56:59 18:00:23 24° 66° (ENE) 18:03:48 437.475
Cubesat XI-IV 18 Jan 18:00:11 18:05:18 48° 260° (W) 18:10:28 437.490
HORYU 2 18 Jan 18:01:32 18:03:51 14° 269° (W) 18:06:10 437.375
BEESAT 3 18 Jan 18:05:56 18:09:08 23° 317° (NW) 18:12:22 437.485
LilacSat-2 18 Jan 18:13:23 18:16:22 22° 266° (W) 18:19:23 437.200
NOAA 15 18 Jan 18:16:56 18:21:39 32° 264° (W) 18:26:24 137.62
GOMX 1 18 Jan 18:21:48 18:24:52 15° 271° (W) 18:27:54 467.674
CANX-2 18 Jan 18:24:54 18:29:01 53° 73° (ENE) 18:33:12 2200.000
SO-50 18 Jan 18:24:56 18:27:23 15° 251° (WSW) 18:29:49 436.795
STRAND 1 18 Jan 18:32:06 18:36:10 23° 93° (E) 18:40:13 437.568
GONETS M04 18 Jan 18:35:50 18:42:20 24° 79° (E) 18:48:51
SEEDS 18 Jan 18:40:18 18:44:19 45° 72° (ENE) 18:48:22 437.485
BEESAT 2 18 Jan 18:46:28 18:49:35 22° 318° (NW) 18:52:44 435.950
CUBEBUG 2 18 Jan 18:46:32 18:50:15 32° 70° (ENE) 18:53:58 437.445
Cosmos 2499 18 Jan 18:47:57 18:55:18 35° 86° (E) 19:02:13 435.465 / 435.565
Oscar 11 18 Jan 18:48:20 18:50:17 13° 61° (ENE) 18:52:13 145.826/435.025
COMPASS 1 18 Jan 18:49:41 18:53:33 38° 70° (ENE) 18:57:28 437.405
AIST 2 18 Jan 18:50:20 18:52:00 12° 108° (ESE) 18:53:40 435.215
CUTE-I 18 Jan 19:00:19 19:03:17 15° 271° (W) 19:06:15 437.470
AAUSAT CUBESAT 2 18 Jan 19:02:58 19:06:52 40° 71° (ENE) 19:10:49 437.432
DOVE 4 18 Jan 19:13:35 19:14:12 10° 272° (W) 19:14:49 437.250
CINEMA 3 18 Jan 19:15:23 19:19:19 30° 264° (W) 19:23:07 145.822/145.860
UWE-3 18 Jan 19:18:48 19:22:45 45° 72° (ENE) 19:26:44 435.000/436.395/437.385
FUNcube-1 18 Jan 19:20:33 19:24:02 27° 68° (ENE) 19:27:32 145.935
HO-68 18 Jan 19:30:17 19:37:12 48° 260° (W) 19:44:09 435.675
NOAA 18 18 Jan 19:31:20 19:34:19 15° 270° (W) 19:37:19 137.9125
CUTE 1.7 + AOD 2 18 Jan 19:32:13 19:36:03 33° 264° (W) 19:39:57 437.475
ZACube-1 18 Jan 19:41:54 19:45:53 49° 73° (ENE) 19:49:54 437.345
CANX-2 18 Jan 20:02:48 20:05:12 15° 270° (W) 20:07:38 2200.000
STRAND 1 18 Jan 20:10:39 20:15:34 46° 290° (WNW) 20:20:28 437.568
HUMSAT D 18 Jan 20:11:08 20:13:53 18° 64° (ENE) 20:16:39 437.325/437.525
SEEDS 18 Jan 20:17:27 20:20:14 17° 269° (W) 20:23:02 437.485
Oscar 11 18 Jan 20:21:32 20:25:49 71° 258° (WSW) 20:30:10 145.826/435.025
CUBEBUG 2 18 Jan 20:23:39 20:26:56 22° 266° (W) 20:30:13 437.445
AIST 2 18 Jan 20:25:45 20:29:52 72° 306° (NW) 20:34:04 435.215
COMPASS 1 18 Jan 20:26:08 20:29:13 20° 267° (W) 20:32:21 437.405
PRISM 18 Jan 20:29:08 20:31:52 17° 92° (E) 20:34:35 437.425
GONETS M04 18 Jan 20:29:29 20:38:11 76° 280° (W) 20:47:00
DELFI C3 18 Jan 20:36:43 20:40:39 57° 74° (ENE) 20:44:36 145.870
AAUSAT CUBESAT 2 18 Jan 20:39:35 20:42:31 18° 268° (W) 20:45:27 437.432
Cosmos 2499 18 Jan 20:39:56 20:48:09 53° 284° (WNW) 20:55:49 435.465 / 435.565
FUNcube-1 18 Jan 20:56:43 21:00:14 27° 265° (W) 21:03:46 145.935
UWE-3 18 Jan 20:56:56 20:59:29 16° 269° (W) 21:02:02 435.000/436.395/437.385
ZACube-1 18 Jan 21:20:07 21:22:29 15° 270° (W) 21:24:51 437.345
CUBEBUG 1 18 Jan 21:43:32 21:46:14 16° 62° (ENE) 21:48:55 437.445
HUMSAT D 18 Jan 21:45:15 21:49:09 44° 262° (W) 21:53:08 437.325/437.525
UNISAT 6 18 Jan 21:53:17 21:57:32 45° 99° (E) 22:01:52 437.425
AISAT 18 Jan 21:55:23 21:57:51 15° 61° (ENE) 22:00:18 437.250
ISS 18 Jan 21:59:06 22:01:06 15° 133° (SE) 22:03:06 145.825
PRISM 18 Jan 22:03:27 22:07:22 42° 289° (WNW) 22:11:14 437.425
AIST 2 18 Jan 22:07:08 22:09:07 13° 326° (NNW) 22:11:07 435.215
TIGRISAT 18 Jan 22:07:08 22:11:30 59° 100° (E) 22:15:57 435.000
ESTCUBE 1 18 Jan 22:07:35 22:11:53 44° 71° (ENE) 22:16:13 437.505/2401.250
BY70-1 18 Jan 22:09:34 22:12:32 84° 257° (WSW) 22:15:47 436.1900
DELFI C3 18 Jan 22:14:08 22:15:49 12° 271° (W) 22:17:29 145.870
JAS-2 18 Jan 22:17:08 22:23:37 36° 96° (E) 22:30:32 435.910
ANTELSAT 18 Jan 22:21:53 22:26:19 90° 100° (E) 22:30:51 437.575/2403.000
RS-15 18 Jan 22:22:56 22:32:29 30° 102° (ESE) 22:42:18 29.354- 29.394
AO-85 18 Jan 22:26:21 22:30:10 47° 50° (NE) 22:33:56 145.980
VELOX 1 18 Jan 22:27:18 22:31:05 28° 67° (ENE) 22:34:52 145.980
GONETS M04 18 Jan 22:31:19 22:36:42 17° 303° (WNW) 22:42:09
POPSAT HIP 1 18 Jan 22:35:59 22:37:44 12° 90° (E) 22:39:28 437.405
Cosmos 2499 18 Jan 22:42:01 22:43:15 10° 307° (NW) 22:44:28 435.465 / 435.565
DUCHIFAT 1 18 Jan 22:48:32 22:50:54 15° 91° (E) 22:53:16 145.980
NANOSAT C BR1 18 Jan 22:52:42 22:55:35 18° 92° (E) 22:58:29 145.865
DX 1 18 Jan 23:05:08 23:09:03 34° 69° (ENE) 23:13:00 434.975-435.025
UKube-1 18 Jan 23:08:08 23:11:46 27° 66° (ENE) 23:15:25 .
SPROUT 18 Jan 23:08:53 23:13:00 52° 73° (ENE) 23:17:09 437.525
CUBEBUG 1 18 Jan 23:17:44 23:22:04 57° 260° (W) 23:26:25 437.445
50 SAT 18 Jan 23:19:33 23:23:06 73° 75° (ENE) 23:26:42 437.505
AISAT 18 Jan 23:29:22 23:33:48 65° 258° (WSW) 23:38:14 437.250
BUGSAT 1 18 Jan 23:30:24 23:32:40 14° 91° (E) 23:34:56 437.445
UNISAT 6 18 Jan 23:30:48 23:33:58 20° 295° (WNW) 23:37:09 437.425
ISS 18 Jan 23:33:58 23:37:14 76° 332° (NNW) 23:40:29 145.825
QB50P1 18 Jan 23:42:56 23:47:08 68° 102° (ESE) 23:51:20 145.935-145.965
TIGRISAT 18 Jan 23:45:09 23:47:46 16° 297° (WNW) 23:50:23 435.000
ESTCUBE 1 18 Jan 23:45:36 23:48:53 20° 268° (W) 23:52:13 437.505/2401.250
POLYITAN 1 18 Jan 23:46:30 23:50:45 75° 103° (ESE) 23:54:58 437.675
QB50P2 18 Jan 23:47:41 23:51:56 83° 105° (ESE) 23:56:10 145.880/145.840
PCSat 18 Jan 23:50:12 23:53:43 18° 105° (ESE) 23:57:14 145.827
YUBILEINY 18 Jan 23:55:04 00:02:13 26° 63° (ENE) 00:09:18 435.215
ANTELSAT 19 Jan 00:01:16 00:02:22 11° 301° (WNW) 00:03:27 437.575/2403.000
JAS-2 19 Jan 00:02:00 00:08:43 51° 291° (WNW) 00:16:02 435.910
VELOX 1 19 Jan 00:03:30 00:07:27 31° 264° (W) 00:11:25 145.980
AO-85 19 Jan 00:07:44 00:10:11 16° 248° (WSW) 00:12:39 145.980
POPSAT HIP 1 19 Jan 00:09:44 00:13:54 62° 286° (WNW) 00:18:04 437.405
Cosmos 2504 19 Jan 00:20:33 00:25:07 17° 59° (ENE) 00:29:33 435.465 / 435.565
DUCHIFAT 1 19 Jan 00:22:49 00:26:53 51° 288° (WNW) 00:30:58 145.980
AIST 1 19 Jan 00:25:09 00:28:57 30° 74° (ENE) 00:32:41
NANOSAT C BR1 19 Jan 00:27:31 00:31:30 42° 289° (WNW) 00:35:28 145.865
RS-15 19 Jan 00:31:37 00:43:34 84° 305° (NW) 00:56:02 29.354- 29.394
BEESAT 19 Jan 00:35:37 00:38:41 17° 61° (ENE) 00:41:47 436.000
Oscar 19 19 Jan 00:36:14 00:40:17 23° 93° (E) 00:44:18 437.125/150
SWISSCUBE 19 Jan 00:36:42 00:40:05 20° 62° (ENE) 00:43:28 437.505
Gurwin Techsat 1B 19 Jan 00:38:05 00:40:22 13° 88° (E) 00:42:39 435.225
DX 1 19 Jan 00:41:43 00:45:18 24° 265° (W) 00:48:53 434.975-435.025
TISAT 1 19 Jan 00:42:50 00:47:00 83° 78° (ENE) 00:51:12 437.305
BEESAT 3 19 Jan 00:42:57 00:46:45 40° 49° (NE) 00:50:33 437.485
UKube-1 19 Jan 00:43:53 00:47:42 30° 263° (W) 00:51:33 .
SPROUT 19 Jan 00:46:47 00:49:13 15° 269° (W) 00:51:42 437.525
Cosmos 2491 19 Jan 00:47:00 00:53:26 24° 79° (E) 00:59:53 435.465 / 435.565
BUGSAT 1 19 Jan 01:04:25 01:08:18 48° 288° (WNW) 01:12:12 437.445
ISS 19 Jan 01:11:20 01:14:05 24° 349° (N) 01:16:50 145.825
QB50P1 19 Jan 01:20:29 01:22:22 13° 299° (WNW) 01:24:15 145.935-145.965
BEESAT 2 19 Jan 01:23:57 01:27:53 47° 51° (NE) 01:31:48 435.950
POLYITAN 1 19 Jan 01:24:23 01:25:57 12° 300° (WNW) 01:27:30 437.675
QB50P2 19 Jan 01:26:02 01:27:05 11° 300° (WNW) 01:28:08 145.880/145.840
M-CUBED/EXP-1 PRIME 19 Jan 01:28:51 01:30:41 13° 57° (ENE) 01:32:30 437.505
PCSat 19 Jan 01:31:06 01:36:30 71° 303° (WNW) 01:41:57 145.827
ITUPSAT 1 19 Jan 01:35:31 01:40:11 60° 72° (ENE) 01:44:54 437.325
JAS-2 19 Jan 01:50:34 01:52:23 11° 310° (NW) 01:54:14 435.910
YUBILEINY 19 Jan 01:51:08 01:59:58 75° 266° (W) 02:08:41 435.215
AO-7 19 Jan 02:02:34 02:07:14 16° 87° (E) 02:11:51 29.400- 29.500
AIST 1 19 Jan 02:02:57 02:06:23 24° 272° (W) 02:09:47
AUBIESAT-1 19 Jan 02:05:17 02:08:35 22° 62° (ENE) 02:11:44 437.475
BEESAT 19 Jan 02:11:18 02:15:59 61° 258° (WSW) 02:20:44 436.000
Cosmos 2504 19 Jan 02:12:17 02:19:49 86° 82° (E) 02:27:00 435.465 / 435.565
SWISSCUBE 19 Jan 02:12:51 02:17:29 52° 260° (W) 02:22:09 437.505
CUSAT 1 19 Jan 02:14:28 02:18:19 21° 81° (E) 02:22:53 437.405
Oscar 19 19 Jan 02:14:52 02:19:50 48° 291° (WNW) 02:24:46 437.125/150
Gurwin Techsat 1B 19 Jan 02:15:39 02:21:00 86° 286° (WNW) 02:26:19 435.225
BEESAT 3 19 Jan 02:21:06 02:24:08 21° 247° (WSW) 02:27:09 437.485
MOZHAYETS 4 19 Jan 02:21:15 02:25:40 51° 72° (ENE) 02:30:08
STARS 19 Jan 02:36:42 02:38:40 13° 60° (ENE) 02:40:38 437.465
Cosmos 2491 19 Jan 02:40:36 02:49:18 77° 280° (W) 02:58:05 435.465 / 435.565
PHONESAT 2.4 19 Jan 02:44:55 02:46:22 15° 161° (SSE) 02:47:49 2401.200-2431.200
RS-15 19 Jan 02:47:12 02:58:09 37° 334° (NNW) 03:09:21 29.354- 29.394
ISS 19 Jan 02:48:32 02:51:16 24° 10° (N) 02:54:01 145.825
ITAMSAT 1 19 Jan 02:54:01 02:59:02 45° 99° (E) 03:04:01 435.822/435.867
M-CUBED/EXP-1 PRIME 19 Jan 03:00:15 03:04:41 80° 253° (WSW) 03:08:50 437.505
BEESAT 2 19 Jan 03:02:32 03:05:20 18° 248° (WSW) 03:08:07 435.950
CUBESAT XI-V 19 Jan 03:03:29 03:07:14 24° 65° (ENE) 03:10:59 437.345
AIST 2 19 Jan 03:07:53 03:10:53 18° 39° (NE) 03:13:54 435.215
KKS-1 19 Jan 03:12:30 03:16:53 60° 73° (ENE) 03:21:17 437.445
ITUPSAT 1 19 Jan 03:15:31 03:18:25 16° 269° (W) 03:21:20 437.325
PCSat 19 Jan 03:17:35 03:20:54 16° 325° (NW) 03:24:13 145.827
AUBIESAT-1 19 Jan 03:38:48 03:42:49 37° 256° (WSW) 03:46:37 437.475
YUBILEINY 19 Jan 03:50:38 03:55:07 15° 287° (WNW) 03:59:36 435.215
AO-7 19 Jan 03:52:54 04:01:19 77° 107° (ESE) 04:09:39 29.400- 29.500
CUSAT 1 19 Jan 03:54:27 03:59:25 57° 287° (WNW) 04:05:55 437.405
Gurwin Techsat 1B 19 Jan 03:57:37 04:00:09 14° 304° (WNW) 04:02:41 435.225
MOZHAYETS 4 19 Jan 04:00:07 04:03:08 17° 269° (W) 04:06:11
Cosmos 2504 19 Jan 04:07:41 04:12:01 17° 283° (WNW) 04:16:16 435.465 / 435.565
STARS 19 Jan 04:10:03 04:14:26 74° 258° (WSW) 04:18:49 437.465
PHONESAT 2.4 19 Jan 04:18:02 04:20:07 30° 177° (S) 04:22:13 2401.200-2431.200
ISS 19 Jan 04:24:54 04:28:09 71° 28° (NNE) 04:31:24 145.825
BRITE-PL 19 Jan 04:30:15 04:34:48 35° 95° (E) 04:39:01 437.365/2234.400
DANDE 19 Jan 04:30:28 04:34:12 84° 280° (W) 04:39:18 436.750
ITAMSAT 1 19 Jan 04:34:01 04:38:14 26° 297° (WNW) 04:42:27 435.822/435.867
Cosmos 2499 19 Jan 04:39:57 04:41:25 11° 54° (NE) 04:42:53 435.465 / 435.565
CUBESAT XI-V 19 Jan 04:39:58 04:44:23 40° 263° (W) 04:48:50 437.345
Cosmos 2491 19 Jan 04:42:24 04:47:48 18° 303° (WNW) 04:53:16 435.465 / 435.565
GOMX 1 19 Jan 04:42:51 04:45:50 17° 90° (E) 04:48:42 467.674
GONETS M04 19 Jan 04:43:31 04:47:25 13° 52° (NE) 04:51:18
AIST 2 19 Jan 04:45:34 04:49:48 68° 239° (WSW) 04:54:01 435.215
KKS-1 19 Jan 04:51:26 04:53:49 14° 269° (W) 04:56:14 437.445
NOAA 15 19 Jan 04:53:06 04:54:23 11° 87° (E) 04:55:39 137.62
RS-15 19 Jan 05:05:09 05:15:29 29° 8° (N) 05:25:45 29.354- 29.394
DOVE 4 19 Jan 05:29:14 05:32:19 20° 92° (E) 05:35:21 437.250
CUTE-I 19 Jan 05:33:15 05:37:41 26° 94° (E) 05:42:05 437.470
CUSAT 1 19 Jan 05:42:35 05:43:20 10° 312° (NW) 05:44:08 437.405
LilacSat-2 19 Jan 05:44:10 05:47:41 32° 97° (E) 05:51:11 437.200
AO-7 19 Jan 05:46:33 05:53:19 29° 307° (NW) 06:00:04 29.400- 29.500
HORYU 2 19 Jan 05:48:02 05:52:30 85° 286° (WNW) 05:56:58 437.375
STRAND 1 19 Jan 05:49:18 05:54:00 39° 68° (ENE) 05:58:44 437.568
PHONESAT 2.4 19 Jan 05:52:04 05:53:56 21° 193° (SSW) 05:55:48 2401.200-2431.200
ISS 19 Jan 06:02:10 06:04:18 16° 226° (SW) 06:06:26 145.825
NOAA 18 19 Jan 06:08:23 06:13:06 29° 95° (E) 06:17:46 137.9125
BRITE-PL 19 Jan 06:08:56 06:13:08 27° 295° (WNW) 06:17:03 437.365/2234.400
O/OREOS (USA 219) 19 Jan 06:12:28 06:16:41 43° 107° (ESE) 06:20:56 437.305
Cubesat XI-IV 19 Jan 06:15:24 06:20:42 60° 101° (ESE) 06:25:58 437.490
GOMX 1 19 Jan 06:19:56 06:24:15 45° 289° (WNW) 06:28:19 467.674
Cosmos 2499 19 Jan 06:29:15 06:36:23 61° 77° (ENE) 06:43:20 435.465 / 435.565
NOAA 15 19 Jan 06:29:35 06:34:57 84° 104° (ESE) 06:40:15 137.62
GONETS M04 19 Jan 06:37:43 06:46:27 60° 76° (ENE) 06:55:10
HO-68 19 Jan 06:56:13 07:02:30 32° 95° (E) 07:08:44 435.675
SO-50 19 Jan 07:00:23 07:03:05 15° 110° (ESE) 07:05:46 436.795
DOVE 4 19 Jan 07:06:18 07:10:11 36° 290° (WNW) 07:13:59 437.250
CINEMA 3 19 Jan 07:07:24 07:11:29 52° 100° (E) 07:15:39 145.822/145.860
CUTE-I 19 Jan 07:12:51 07:17:53 44° 292° (WNW) 07:22:56 437.470
CUTE 1.7 + AOD 2 19 Jan 07:15:03 07:19:02 36° 97° (E) 07:23:00 437.475
LilacSat-2 19 Jan 07:18:54 07:21:46 20° 293° (WNW) 07:24:38 437.200
RS-15 19 Jan 07:19:43 07:31:48 52° 41° (NE) 07:43:28 29.354- 29.394
PRISM 19 Jan 07:20:11 07:22:51 17° 63° (ENE) 07:25:32 437.425
HORYU 2 19 Jan 07:27:33 07:28:18 10° 302° (WNW) 07:29:04 437.375
STRAND 1 19 Jan 07:28:58 07:33:16 27° 265° (W) 07:37:36 437.568
CANX-2 19 Jan 07:43:46 07:48:07 87° 99° (E) 07:52:25 2200.000
NOAA 18 19 Jan 07:48:46 07:53:52 41° 293° (WNW) 07:58:57 137.9125
ANTELSAT 19 Jan 07:49:43 07:50:20 10° 59° (ENE) 07:50:59 437.575/2403.000
O/OREOS (USA 219) 19 Jan 07:52:46 07:56:17 22° 306° (NW) 07:59:48 437.305
Cubesat XI-IV 19 Jan 07:56:26 08:00:20 21° 299° (WNW) 08:04:12 437.490
SEEDS 19 Jan 07:57:46 08:02:02 72° 102° (ESE) 08:06:16 437.485
COMPASS 1 19 Jan 08:05:49 08:09:59 58° 100° (E) 08:14:07 437.405
Oscar 11 19 Jan 08:07:53 08:11:00 19° 92° (E) 08:14:07 145.826/435.025
NOAA 15 19 Jan 08:10:59 08:14:00 16° 303° (WNW) 08:17:02 137.62
CUBEBUG 2 19 Jan 08:11:08 08:15:24 62° 101° (E) 08:19:47 437.445
AAUSAT CUBESAT 2 19 Jan 08:18:30 08:22:40 61° 100° (E) 08:26:48 437.432
Cosmos 2499 19 Jan 08:23:24 08:28:53 24° 278° (W) 08:34:17 435.465 / 435.565
JAS-2 19 Jan 08:34:31 08:37:33 15° 54° (NE) 08:40:43 435.910
PCSat 19 Jan 08:34:35 08:39:01 25° 43° (NE) 08:43:27 145.827
GONETS M04 19 Jan 08:35:16 08:42:44 32° 277° (W) 08:50:14
SO-50 19 Jan 08:38:18 08:43:01 72° 307° (NW) 08:47:40 436.795
FUNcube-1 19 Jan 08:41:50 08:46:04 47° 99° (E) 08:50:21 145.935
UWE-3 19 Jan 08:42:20 08:46:42 85° 104° (ESE) 08:51:09 435.000/436.395/437.385
HO-68 19 Jan 08:43:33 08:50:31 54° 294° (WNW) 08:57:25 435.675
CINEMA 3 19 Jan 08:45:47 08:48:16 16° 296° (WNW) 08:50:45 145.822/145.860
CUTE 1.7 + AOD 2 19 Jan 08:51:19 08:54:41 22° 294° (WNW) 08:58:00 437.475
UNISAT 6 19 Jan 08:53:39 08:57:43 46° 72° (ENE) 09:01:49 437.425
PRISM 19 Jan 08:53:44 08:57:46 49° 260° (W) 09:01:51 437.425
ZACube-1 19 Jan 09:04:05 09:08:27 88° 99° (E) 09:12:55 437.345
TIGRISAT 19 Jan 09:07:17 09:11:28 61° 74° (ENE) 09:15:41 435.000
ANTELSAT 19 Jan 09:22:07 09:26:22 87° 252° (WSW) 09:30:40 437.575/2403.000
CANX-2 19 Jan 09:22:21 09:23:17 11° 300° (WNW) 09:24:13 2200.000
HUMSAT D 19 Jan 09:26:55 09:30:30 25° 95° (E) 09:34:05 437.325/437.525
POPSAT HIP 1 19 Jan 09:30:29 09:32:15 12° 61° (ENE) 09:34:00 437.405
RS-15 19 Jan 09:32:43 09:44:40 60° 246° (WSW) 09:56:09 29.354- 29.394
SEEDS 19 Jan 09:35:21 09:37:08 12° 299° (WNW) 09:38:55 437.485
DUCHIFAT 1 19 Jan 09:42:21 09:44:35 14° 62° (ENE) 09:46:50 145.980
COMPASS 1 19 Jan 09:42:44 09:45:04 15° 297° (WNW) 09:47:24 437.405
Oscar 11 19 Jan 09:43:12 09:47:20 43° 289° (WNW) 09:51:27 145.826/435.025
NANOSAT C BR1 19 Jan 09:46:39 09:49:23 17° 64° (ENE) 09:52:08 145.865
DELFI C3 19 Jan 09:46:55 09:50:57 77° 102° (ESE) 09:54:55 145.870
CUBEBUG 2 19 Jan 09:49:15 09:51:34 14° 297° (WNW) 09:53:57 437.445
AAUSAT CUBESAT 2 19 Jan 09:55:29 09:57:38 14° 298° (WNW) 09:59:46 437.432
JAS-2 19 Jan 10:16:22 10:21:40 87° 256° (WSW) 10:27:33 435.910
PCSat 19 Jan 10:17:29 10:22:52 64° 243° (WSW) 10:28:12 145.827
FUNcube-1 19 Jan 10:18:56 10:21:58 19° 295° (WNW) 10:25:03 145.935
UWE-3 19 Jan 10:21:20 10:22:32 11° 300° (WNW) 10:23:45 435.000/436.395/437.385
SO-50 19 Jan 10:21:35 10:24:17 15° 327° (NNW) 10:26:59 436.795
BUGSAT 1 19 Jan 10:22:11 10:24:16 14° 62° (ENE) 10:26:20 437.445
UNISAT 6 19 Jan 10:32:00 10:34:42 16° 268° (W) 10:37:25 437.425
HO-68 19 Jan 10:34:06 10:36:40 12° 315° (NW) 10:39:14 435.675
QB50P1 19 Jan 10:36:31 10:40:39 61° 73° (ENE) 10:44:47 145.935-145.965
POLYITAN 1 19 Jan 10:40:15 10:44:24 67° 74° (ENE) 10:48:34 437.675
QB50P2 19 Jan 10:41:25 10:45:36 74° 75° (ENE) 10:49:48 145.880/145.840
ZACube-1 19 Jan 10:43:03 10:44:05 11° 300° (WNW) 10:45:08 437.345
BY70-1 19 Jan 10:43:12 10:46:26 40° 98° (E) 10:49:29 436.1900
TIGRISAT 19 Jan 10:46:44 10:48:34 13° 270° (W) 10:50:26 435.000
Cosmos 2491 19 Jan 10:54:49 10:58:32 13° 52° (NE) 11:02:14 435.465 / 435.565
HUMSAT D 19 Jan 11:02:20 11:06:06 31° 291° (WNW) 11:09:52 437.325/437.525
POPSAT HIP 1 19 Jan 11:03:17 11:07:27 70° 257° (WSW) 11:11:39 437.405
CUBEBUG 1 19 Jan 11:05:10 11:08:35 22° 94° (E) 11:12:00 437.445
DUCHIFAT 1 19 Jan 11:15:42 11:19:48 58° 259° (W) 11:23:56 145.980
AISAT 19 Jan 11:18:31 11:21:49 20° 93° (E) 11:25:05 437.250
NANOSAT C BR1 19 Jan 11:20:43 11:24:45 46° 261° (W) 11:28:48 145.865
DELFI C3 19 Jan 11:24:22 11:25:07 10° 300° (WNW) 11:25:54 145.870
